Location: Vlissingen
(51.4500°N, 3.5830°E)
Time: 04:58:11
(UTC+01:00)

Daily predictions for brighter satellites

Satellite Brightness Start Highest point End
(mag) Time Altitude Azimuth Time Altitude Azimuth Time Altitude Azimuth
ATLAS 2AS CENTAUR R/B 4.2 03:46:24 34° NNE 03:46:24 34° NNE 03:52:48 10° ENE
Cosmos 1943 Rocket 4.3 04:02:56 20° NNE 04:03:08 20° NNE 04:07:14 10° E
ADEOS II 4.3 04:15:13 10° NNE 04:16:26 17° NNE 04:16:26 17° NNE
Cosmos 2237 Rocket 3.7 04:24:08 31° NE 04:24:08 31° NE 04:27:01 10° NNE
Cosmos 2333 Rocket 3.7 04:37:08 28° NNE 04:37:08 28° NNE 04:39:50 10° NNE
Cosmos 2219 Rocket 3.9 04:43:44 24° NNE 04:43:44 24° NNE 04:46:02 10° NNE
GEOS 3 Rocket 4.2 04:40:01 10° NE 04:44:24 55° ENE 04:44:24 55° ENE
Cosmos 967 Rocket 4.5 04:53:37 81° ENE 04:53:37 81° ENE 04:59:47 10° NE
Okean O Rocket 3.7 04:53:23 10° NNE 04:54:58 21° NNE 04:54:58 21° NNE
SL-16 R/B 2.4 04:58:29 68° ESE 04:58:30 68° ESE 05:04:10 10° NE
COSMO-SKYMED 1 4.0 05:02:22 10° SE 05:06:19 36° ENE 05:07:42 28° NNE
SeaSat 1 4.1 05:02:59 10° NNE 05:05:04 23° N 05:05:04 23° N
USA 267 3.5 05:07:30 10° ENE 05:13:51 55° N 05:15:00 49° NW
CZ-4B R/B 3.4 05:10:01 10° NNE 05:15:43 74° ESE 05:21:22 10° S
Cosmos 2369 Rocket 2.6 05:14:40 42° N 05:16:22 60° NE 05:21:53 10° SE
Cosmos 1606 4.0 05:23:25 36° SE 05:23:25 36° SE 05:25:55 10° SSE
NOSS 3-1 (C) 3.9 05:25:00 51° WNW 05:26:53 66° SW 05:35:05 10° SSE
Okean 1-7 3.7 05:26:39 27° N 05:28:47 53° ENE 05:33:03 10° SSE
Lacrosse 5 rocket 2.1 05:28:45 51° SSE 05:29:16 54° SE 05:33:50 10° ENE
Cosmos 2233 Rocket 3.8 05:25:07 10° NNW 05:31:17 78° W 05:37:24 10° S
Cosmos 1408 3.8 05:27:49 10° SSE 05:31:22 42° E 05:34:55 10° NNE
USA 32 4.0 05:27:47 10° S 05:33:00 80° E 05:38:15 10° N
ATLAS 2AS CENTAUR R/B 3.7 05:33:51 25° NW 05:38:32 48° NNE 05:46:00 10° E
PAYLOAD B 4.2 05:40:22 10° N 05:45:53 62° WNW 05:48:18 34° SW
Cosmos 1943 Rocket 2.5 05:44:29 24° NNW 05:48:00 67° NE 05:53:39 10° SE
Intercosmos 25 3.3 05:48:56 65° S 05:48:56 65° S 05:52:29 10° S
Cosmos 1782 2.7 05:49:40 71° SSW 05:49:40 71° SSW 05:53:14 10° S
NOSS 3-1 (A) 4.0 05:49:00 35° WNW 05:52:21 63° SW 06:00:32 10° SSE
CZ-2C R/B 4.1 05:48:31 10° NNE 05:53:18 36° E 05:57:58 10° SSE
SKYMED 2 3.4 05:49:54 10° SSE 05:54:16 84° WSW 05:56:18 31° NNW
Cosmos 405 Rocket 2.6 05:54:41 55° N 05:55:27 81° ENE 05:59:11 10° SSE
Cosmos 1818 4.2 05:54:50 25° NNW 05:57:51 51° NE 06:03:09 10° ESE
Cosmos 1992 Rocket 3.9 05:55:27 24° SW 05:58:39 72° WNW 06:03:54 10° NNE
ADEOS II 3.8 05:55:37 10° N 05:57:22 18° NNW 05:57:22 18° NNW
Cosmos 1777 Rocket 4.0 05:57:57 22° NNW 06:01:24 85° ENE 06:06:37 10° SSE
Cosmos 2360 Rocket 4.2 06:01:15 12° NNW 06:01:33 12° NNW 06:03:46 10° N
Meteor 2-6 Rocket 4.2 05:56:57 10° NNW 06:02:48 78° W 06:08:43 10° S
CZ-4B DEB 4.4 05:58:47 10° N 06:04:06 48° WNW 06:07:17 23° SW
Cosmos 2237 Rocket 3.2 06:05:59 27° NW 06:05:59 27° NW 06:10:50 10° NNE
Cosmos 1943 4.2 06:00:38 10° S 06:06:03 47° ESE 06:11:29 10° NE
ATLAS 5 CENTAUR R/B 3.4 06:03:58 10° S 06:08:13 36° ESE 06:12:51 10° NE
Cosmos 2221 Rocket 3.5 06:07:16 19° NNW 06:10:28 69° W 06:14:57 10° S
SL-16 R/B 4.4 06:11:20 10° N 06:12:03 10° N 06:12:46 10° N
Cosmos 1891 Rocket 4.4 06:07:07 10° N 06:13:12 87° E 06:19:19 10° S
Cosmos 2123 Rocket 4.4 06:09:59 22° WSW 06:13:21 38° WNW 06:19:12 10° N
Cosmos 1703 Rocket 3.9 06:14:14 41° W 06:14:27 41° W 06:18:33 10° SSW
Okean-O 2.5 06:11:26 10° NNE 06:15:56 89° W 06:20:22 10° SSW
NOAA 6 3.9 06:11:01 10° NNE 06:16:11 88° W 06:21:18 10° SSW
Cosmos 2263 4.2 06:15:21 20° NW 06:19:23 72° WSW 06:25:07 10° SSE
Cosmos 2333 Rocket 3.6 06:19:09 19° NW 06:19:32 20° NNW 06:23:40 10° NNE
EO 1 Del DPAF 3.6 06:16:57 10° S 06:20:36 42° W 06:20:59 40° W
COSMOS 2428 4.5 06:20:37 14° NNW 06:21:10 14° NNW 06:24:12 10° N
Cosmos 968 Rocket 4.2 06:21:30 30° W 06:22:30 33° WSW 06:27:09 10° SSW
GEOS 3 Rocket 4.2 06:18:15 10° NE 06:23:16 40° NNW 06:25:31 27° WNW
PAYLOAD A 4.2 06:18:39 10° NNE 06:23:54 82° ESE 06:29:17 10° SSW
Cosmos 1869 Rocket 3.4 06:20:19 10° SSW 06:24:41 69° WNW 06:29:08 10° N
Cosmos 2219 Rocket 3.8 06:25:28 16° NNW 06:25:57 16° NNW 06:29:24 10° N
Cosmos 1862 3.3 06:25:17 10° S 06:29:14 80° E 06:33:14 10° NNE
MSX 4.4 06:26:12 10° NNE 06:31:57 61° ESE 06:37:39 10° S
Gbstr 26 Del rocket 2.8 06:30:30 30° W 06:32:34 89° N 06:36:28 10° E
Meteor 1-27 Rocket 3.7 06:27:31 10° NNW 06:33:22 70° W 06:39:05 10° S
Okean O Rocket 3.2 06:30:31 10° NNW 06:32:24 18° NW 06:32:24 18° NW
Cosmos 2034 Rocket 3.9 06:28:42 10° NNW 06:34:59 79° W 06:41:10 10° S
Cosmos 1825 2.5 06:31:25 10° SW 06:35:00 41° WNW 06:38:38 10° N
Cosmos 2322 Rocket 4.5 06:34:58 10° N 06:35:26 10° N 06:35:53 10° N
Meteor 2-3 Rocket 4.4 06:35:20 10° SW 06:40:27 33° WNW 06:45:33 10° N
COSMO-SKYMED 1 3.4 06:38:42 10° SSW 06:42:32 30° W 06:44:55 18° NW
SL-16 R/B 3.0 06:40:25 21° W 06:43:06 30° NW 06:48:07 10° NNE
Okean 3 4.3 06:39:17 10° N 06:43:24 52° ENE 06:47:32 10° SSE
SeaSat 1 4.2 06:41:41 10° N 06:44:10 14° NNW 06:44:51 14° NW
Thor Agena Rocket 3.4 06:39:43 10° S 06:44:47 74° WSW 06:49:51 10° NNW
IDEFIX/ARIANE 42P 2.5 06:39:55 10° NNE 06:45:07 74° WNW 06:50:17 10° SSW
Lacrosse 4 Rocket 3.3 06:42:36 10° S 06:46:32 34° ESE 06:50:25 10° NE
Cosmos 1603 3.8 06:42:18 10° SW 06:47:52 58° NW 06:53:31 10° NNE
Cosmos 1674 Rocket 3.6 06:46:43 10° N 06:51:04 84° E 06:55:23 10° SSE
Genesis I 4.3 06:49:02 10° SSW 06:52:48 47° SE 06:56:38 10° NE
CZ-4 R/B 3.1 06:52:02 10° NNE 06:55:40 35° E 06:59:20 10° SSE
CZ-4B R/B 4.3 06:51:17 10° N 06:55:47 25° NW 07:00:16 10° WSW
USA 267 3.4 06:50:01 10° ESE 06:56:32 73° NNE 07:02:21 14° WNW
Cosmos 1441 Rocket 4.2 06:56:01 17° NW 06:57:55 25° W 07:01:02 10° SSW
Cosmos 909 Rocket 4.4 06:50:20 10° NW 06:58:37 86° SW 07:05:18 10° SE
Cosmos 2369 Rocket 3.1 06:56:30 15° NW 07:00:02 28° WSW 07:04:43 10° SSW
SMAP 4.0 06:56:21 10° NNE 07:00:56 53° E 07:05:29 10° S
Cosmos 1484 Rocket 3.5 06:57:22 10° NNE 07:01:23 61° E 07:05:21 10° S
Abrixas rocket 3.6 06:59:36 15° WSW 07:01:36 26° SSW 07:04:22 10° SE
Cosmos 1464 Rocket 4.4 06:56:59 10° NNW 07:02:44 40° W 07:08:32 10° SSW
Cosmos 1812 2.9 07:00:49 10° N 07:04:44 75° ENE 07:08:36 10° SSE
Okean 1-7 4.4 07:03:36 13° NW 07:05:59 20° W 07:09:07 10° SW
Cosmos 1408 4.0 07:03:59 10° WSW 07:06:42 19° WNW 07:09:26 10° NNW
Lacrosse 5 rocket 1.8 07:04:28 12° W 07:08:38 55° NNW 07:13:13 10° ENE
Cosmos 1378 Rocket 3.7 07:06:48 10° N 07:11:17 80° E 07:15:44 10° SSE
SL-8 R/B 4.4 07:09:26 10° WSW 07:14:05 53° SSE 07:18:44 10° E
COSMOS 2441 4.4 07:10:13 10° N 07:15:06 66° WNW 07:19:57 10° SSW
SJ 16-02 3.8 07:12:25 10° N 07:15:10 16° NE 07:17:55 10° E
SJ-7 4.4 07:11:49 10° NNE 07:15:51 88° ESE 07:19:50 10° SSW
CZ-3B R/B 2.8 07:17:26 10° SW 07:19:05 43° SSE 07:21:00 10° ENE
SJ-12 4.1 07:18:05 10° N 07:22:06 50° WNW 07:26:04 10° SW
Tsikada Rocket 4.0 07:16:20 10° SSW 07:22:34 68° WNW 07:28:47 10° N
Cosmos 1697 Rocket 4.4 07:18:02 10° NNW 07:22:37 24° NE 07:27:10 10° E
Cosmos 2346 Rocket 4.4 07:18:10 10° S 07:24:13 86° W 07:30:19 10° N
ERS-2 4.0 07:24:13 10° NNE 07:27:39 36° E 07:31:03 10° SSE
YAOGAN 1 3.4 07:25:31 10° NNE 07:29:49 57° E 07:34:04 10° S
Cosmos 1908 Rocket 3.8 07:25:34 10° S 07:29:59 78° E 07:34:25 10° NNE
ATLAS 2AS CENTAUR R/B 3.1 07:22:05 10° NW 07:30:08 74° SW 07:37:37 10° SSE
Cosmos 1733 Rocket 3.2 07:26:45 10° SSW 07:30:57 49° WNW 07:35:14 10° N
Cosmos 1943 Rocket 3.3 07:26:43 10° NW 07:31:18 26° WSW 07:35:52 10° SSW
CZ-2C R/B 2.9 07:26:45 10° N 07:31:35 40° WNW 07:36:20 10° SW
Cosmos 2208 Rocket 4.3 07:28:20 10° SSW 07:33:30 73° ESE 07:38:42 10° NNE
IRAS Rocket 4.2 07:28:10 10° NNE 07:33:41 79° WNW 07:39:10 10° SSW
Cosmos 332 Rocket 4.0 07:30:40 10° SSW 07:35:27 80° ESE 07:40:18 10° NNE
Aureole 3 3.8 07:36:45 10° SW 07:39:12 23° WNW 07:41:44 10° NNW
CSL-04 Rocket 3.7 07:35:47 10° NNE 07:41:15 71° WNW 07:46:45 10° SSW
Cosmos 1818 4.2 07:36:17 10° NW 07:41:22 40° WSW 07:46:25 10° S
Cosmos 2150 Rocket 4.2 07:37:20 10° NNW 07:42:50 85° ENE 07:48:13 10° SSE
